Weather History for KINL - January, 2014

Change the Weather History Date:

Friday, January 31, 2014

  Actual Average Record
Temperature  
Mean Temperature -8 °F 6 °F  
Max Temperature 5 °F 17 °F 45 °F (1999)
Min Temperature -21 °F -6 °F -35 °F (1982)
Degree Days  
Heating Degree Days 73 59  
Month to date heating degree days 2120 1879  
Since 1 July heating degree days 6615 6053  
Cooling Degree Days 0 0  
Month to date cooling degree days 0 0  
Year to date cooling degree days 0 0  
Moisture  
Dew Point -17 °F    
Average Humidity 65    
Maximum Humidity 78    
Minimum Humidity 51    
Precipitation  
Precipitation 0.02 in 0.02 in 0.20 in (1912)
Month to date precipitation 0.84 0.62  
Year to date precipitation 0.84 0.62  
Snow  
Snow 0.00 in 0.40 in 4.00 in (1988)
Month to date snowfall 16.8 15.0  
Since 1 July snowfall 54.1 46.0  
Snow Depth 21.00 in    
Sea Level Pressure  
Sea Level Pressure 29.97 in    
Wind  
Wind Speed 6 mph (SW)    
Max Wind Speed 15 mph    
Max Gust Speed 19 mph    
Visibility 9 miles    
Events Snow    
T = Trace of Precipitation, MM = Missing Value Source: NWS Daily Summary

Daily Weather History Graph

Daily Weather History Graph

Search for Another Location

Airport or City:

Trip Planner

Search our weather history database for the weather conditions in past years. The results will help you decide how hot, cold, wet, or windy it might be!

Date:

Astronomy

Jan. 31, 2014 Rise Set
Actual Time 7:44 AM CST 5:10 PM CST
Civil Twilight 7:10 AM CST 5:44 PM CST
Nautical Twilight 6:32 AM CST 6:22 PM CST
Astronomical Twilight 5:55 AM CST 6:59 PM CST
Moon 7:45 AM CST (1/31) 6:46 PM CST (1/31)
Length of Visible Light 10h 34m
Length of Day
9h 26m
New Moon, 1% of the Moon is Illuminated
Jan 31
New Moon
Feb 6
First Quarter
Feb 14
Full
Feb 22
Last Quarter
Mar 1
New

Hourly Weather History & Observations

Time (CST) Temp. Windchill Dew Point Humidity Pressure Visibility Wind Dir Wind Speed Gust Speed Precip Events Conditions
12:07 AM -14.1 °F -29.9 °F -18.9 °F 79% 29.88 in 10.0 mi West 6.9 mph - N/A   Scattered Clouds
12:45 AM -14.1 °F -28.3 °F -18.9 °F 79% 29.88 in 10.0 mi WSW 5.8 mph - N/A   Overcast
12:55 AM -13.0 °F -27.0 °F -18.9 °F 75% 30.00 in 10.0 mi WSW 5.8 mph - N/A   Overcast
1:40 AM -11.9 °F -27.3 °F -18.0 °F 74% 29.87 in 2.5 mi WSW 6.9 mph - 0.01 in Snow Light Snow
1:44 AM -11.9 °F -27.3 °F -18.0 °F 74% 29.88 in 2.5 mi WSW 6.9 mph - 0.01 in Snow Light Snow
1:55 AM -13.0 °F -25.1 °F -18.0 °F 78% 30.00 in 2.5 mi SW 4.6 mph - 0.01 in Snow Light Snow
2:04 AM -13.0 °F -28.6 °F -18.9 °F 75% 29.88 in 3.0 mi SW 6.9 mph - 0.00 in Snow Light Snow
2:55 AM -15.0 °F -31.0 °F -20.9 °F 75% 30.01 in 9.0 mi SSW 6.9 mph - 0.00 in   Overcast
3:55 AM -15.0 °F -31.0 °F -20.0 °F 78% 30.00 in 10.0 mi SW 6.9 mph - 0.01 in   Scattered Clouds
4:55 AM -18.9 °F -34.0 °F -24.0 °F 78% 30.00 in 10.0 mi SW 5.8 mph - N/A   Clear
5:55 AM -20.0 °F -35.3 °F -26.0 °F 74% 30.00 in 10.0 mi SSW 5.8 mph - N/A   Clear
6:55 AM -20.0 °F -33.3 °F -25.1 °F 78% 30.02 in 10.0 mi SSW 4.6 mph - N/A   Clear
7:55 AM -20.9 °F -34.3 °F -27.0 °F 73% 30.02 in 10.0 mi SSW 4.6 mph - N/A   Clear
8:55 AM -15.0 °F -31.0 °F -20.9 °F 75% 30.02 in 10.0 mi WSW 6.9 mph - N/A   Clear
9:55 AM -11.0 °F -28.8 °F -18.0 °F 71% 30.02 in 10.0 mi SW 9.2 mph - N/A   Clear
10:55 AM -7.1 °F -25.9 °F -16.1 °F 65% 30.01 in 10.0 mi West 11.5 mph 18.4 mph N/A   Clear
11:55 AM -4.0 °F -22.1 °F -15.0 °F 59% 30.00 in 10.0 mi SW 11.5 mph - N/A   Clear
12:55 PM -0.9 °F -18.3 °F -14.1 °F 54% 29.98 in 10.0 mi SW 11.5 mph - N/A   Clear
1:55 PM 1.9 °F -14.7 °F -11.9 °F 52% 29.96 in 10.0 mi SW 11.5 mph - N/A   Clear
2:55 PM 3.9 °F -13.0 °F -9.9 °F 53% 29.95 in 10.0 mi SW 12.7 mph - N/A   Clear
3:55 PM 3.9 °F -10.4 °F -9.9 °F 53% 29.94 in 10.0 mi South 9.2 mph - N/A   Clear
4:55 PM 1.0 °F -10.3 °F -11.0 °F 57% 29.95 in 10.0 mi SSW 5.8 mph - N/A   Clear
5:55 PM -2.0 °F -12.2 °F -11.9 °F 63% 29.96 in 10.0 mi South 4.6 mph - N/A   Clear
6:55 PM -2.9 °F - -13.0 °F 62% 29.95 in 10.0 mi Calm Calm - N/A   Clear
7:55 PM -7.1 °F -15.9 °F -15.0 °F 68% 29.96 in 10.0 mi South 3.5 mph - N/A   Clear
8:55 PM -9.9 °F - -16.1 °F 74% 29.96 in 10.0 mi Calm Calm - N/A   Clear
9:55 PM -14.1 °F - -20.0 °F 75% 29.96 in 10.0 mi Calm Calm - N/A   Clear
10:55 PM -7.1 °F -15.9 °F -13.0 °F 75% 29.95 in 10.0 mi SSW 3.5 mph - N/A   Clear
11:55 PM -6.0 °F - -11.9 °F 75% 29.94 in 10.0 mi Calm Calm - N/A   Clear